Weather History for Ketchikan, AK

Change the Weather History Date:

Saturday, July 6, 2013

  Actual Average Record
Temperature  
Mean Temperature 62 °F -  
Max Temperature 68 °F 64 °F 81 °F (1958)
Min Temperature 55 °F 49 °F 39 °F (1973)
Degree Days  
Heating Degree Days 4    
Growing Degree Days 12 (Base 50)    
Moisture  
Dew Point 51 °F    
Average Humidity 71    
Maximum Humidity 82    
Minimum Humidity 54    
Precipitation  
Precipitation 0.00 in - - ()
Sea Level Pressure  
Sea Level Pressure 30.12 in    
Wind  
Wind Speed 9 mph (NW)    
Max Wind Speed 16 mph    
Max Gust Speed 22 mph    
Visibility 10 miles    
Events      
Averages and records for this station are not official NWS values.
T = Trace of Precipitation, MM = Missing Value Source: NWS Daily Summary

Daily Weather History Graph

Daily Weather History Graph

Search for Another Location

Airport:

Trip Planner

Search our weather history database for the weather conditions in past years. The results will help you decide how hot, cold, wet, or windy it might be!

Date:

Astronomy

Jul. 06, 2013 Rise Set
Actual Time 4:15 AM AKDT 9:27 PM AKDT
Civil Twilight 3:18 AM AKDT 10:24 PM AKDT
Nautical Twilight 1:24 AM AKDT 12:33 AM AKDT
Astronomical Twilight Sun does not rise Sun does not rise
Moon 3:18 AM AKDT (7/6) 8:01 PM AKDT (7/6)
Length of Visible Light 19h 06m
Length of Day
17h 12m
Waning Crescent, 2% of the Moon is Illuminated
Jul 6
Waning Crescent
Jul 7
New
Jul 15
First Quarter
Jul 22
Full
Jul 29
Last Quarter

Hourly Weather History & Observations

Time (AKDT) Temp. Dew Point Humidity Pressure Visibility Wind Dir Wind Speed Gust Speed Precip Events Conditions
12:53 AM 57.9 °F 50.0 °F 75% 30.17 in 10.0 mi WNW 8.1 mph - N/A   Overcast
1:53 AM 57.9 °F 50.0 °F 75% 30.17 in 10.0 mi WNW 8.1 mph - N/A   Overcast
2:53 AM 55.9 °F 50.0 °F 80% 30.17 in 10.0 mi NW 5.8 mph - N/A   Scattered Clouds
3:20 AM 55.4 °F 50.0 °F 82% 30.17 in 10.0 mi WNW 5.8 mph - N/A   Mostly Cloudy
3:53 AM 55.9 °F 50.0 °F 80% 30.16 in 10.0 mi NW 6.9 mph - N/A   Overcast
4:53 AM 55.9 °F 50.0 °F 80% 30.15 in 10.0 mi WNW 6.9 mph - N/A   Overcast
5:53 AM 57.0 °F 50.0 °F 77% 30.15 in 10.0 mi WNW 8.1 mph - N/A   Overcast
5:57 AM 57.2 °F 50.0 °F 77% 30.15 in 10.0 mi NW 9.2 mph - N/A   Overcast
6:11 AM 57.2 °F 50.0 °F 77% 30.15 in 10.0 mi NW 8.1 mph 18.4 mph N/A   Scattered Clouds
6:53 AM 57.9 °F 51.1 °F 78% 30.15 in 10.0 mi NW 16.1 mph - N/A   Scattered Clouds
7:53 AM 57.9 °F 51.1 °F 78% 30.14 in 10.0 mi WNW 12.7 mph 21.9 mph N/A   Scattered Clouds
8:53 AM 61.0 °F 50.0 °F 67% 30.14 in 10.0 mi Variable 6.9 mph - N/A   Scattered Clouds
9:53 AM 61.0 °F 51.1 °F 70% 30.13 in 10.0 mi North 9.2 mph - N/A   Partly Cloudy
10:53 AM 63.0 °F 52.0 °F 67% 30.12 in 10.0 mi NNW 11.5 mph - N/A   Clear
11:53 AM 62.1 °F 52.0 °F 70% 30.12 in 10.0 mi North 11.5 mph - N/A   Clear
12:53 PM 64.0 °F 53.1 °F 67% 30.12 in 10.0 mi North 13.8 mph - N/A   Clear
1:53 PM 64.9 °F 51.1 °F 61% 30.10 in 10.0 mi NNW 10.4 mph - N/A   Mostly Cloudy
2:53 PM 66.9 °F 51.1 °F 57% 30.09 in 10.0 mi NNW 12.7 mph - N/A   Scattered Clouds
3:53 PM 66.9 °F 50.0 °F 54% 30.08 in 10.0 mi NW 10.4 mph - N/A   Scattered Clouds
4:53 PM 68.0 °F 52.0 °F 56% 30.06 in 10.0 mi NNW 11.5 mph - N/A   Scattered Clouds
5:53 PM 66.0 °F 54.0 °F 65% 30.06 in 10.0 mi North 12.7 mph - N/A   Scattered Clouds
6:53 PM 64.9 °F 50.0 °F 58% 30.05 in 10.0 mi NW 5.8 mph - N/A   Scattered Clouds
7:53 PM 63.0 °F 50.0 °F 63% 30.05 in 10.0 mi WNW 8.1 mph - N/A   Partly Cloudy
9:53 PM 60.1 °F 51.1 °F 72% 30.06 in 10.0 mi WNW 6.9 mph - N/A   Mostly Cloudy
10:53 PM 59.0 °F 51.1 °F 75% 30.06 in 10.0 mi WNW 8.1 mph - N/A   Mostly Cloudy
11:53 PM 57.9 °F 51.1 °F 78% 30.06 in 10.0 mi NW 4.6 mph - N/A   Clear